Weather reports worldwide

Advertisment
Milano/Linate, Italy (16080): temperature & dewpoint: 09.07.2018 21:00:00 - 15.07.2018 21:00:00 (CEST)Milano/Linate, Italy (16080): wind speed: 09.07.2018 21:00:00 - 15.07.2018 21:00:00 (CEST)Milano/Linate, Italy (16080): wind direction: 09.07.2018 21:00:00 - 15.07.2018 21:00:00 (CEST)Milano/Linate, Italy (16080): reduced air pressure: 09.07.2018 21:00:00 - 15.07.2018 21:00:00 (CEST)Milano/Linate, Italy (16080): visibility: 09.07.2018 21:00:00 - 15.07.2018 21:00:00 (CEST)Milano/Linate, Italy (16080): precipitation: 09.07.2018 21:00:00 - 15.07.2018 21:00:00 (CEST)
Date & Time tt [°C] td [°C] ff [km/h] ff [kn] dd ppp [hPa] vv [km] rr [mm]
15.07.2018 21:00:00 - - - - - - - -
15.07.2018 20:00:00 29,4 19,4 5 3 SSW 1011,1 10 -
15.07.2018 19:00:00 31,0 19,0 8 4 WSW - 10 -
15.07.2018 18:00:00 31,0 19,0 9 5 SSW - 10 -
15.07.2018 17:00:00 31,2 18,2 9 5 SW 1012,2 10 0,0
15.07.2018 16:00:00 31,0 19,0 5 3 - - 10 -
15.07.2018 15:00:00 30,0 19,0 8 4 - - 10 -
15.07.2018 14:00:00 28,8 19,2 8 4 - 1014,3 10 -
15.07.2018 13:00:00 27,0 20,0 4 2 - - 10 -
15.07.2018 12:00:00 27,0 20,0 5 3 - - 10 -
15.07.2018 11:00:00 25,7 19,0 8 4 SSE 1015,3 10 0,0
15.07.2018 10:00:00 24,0 18,0 9 5 E - 10 -
15.07.2018 09:00:00 24,0 18,0 8 4 ENE - 10 -
15.07.2018 08:00:00 22,8 17,8 5 3 E 1015,4 10 -
15.07.2018 07:00:00 20,0 18,0 2 1 - - 10 -
15.07.2018 06:00:00 19,0 18,0 2 1 ENE - 10 -
15.07.2018 05:00:00 19,7 18,5 4 2 - 1015,1 10 0,0
15.07.2018 04:00:00 21,0 18,0 4 2 - - 10 -
15.07.2018 03:00:00 22,0 18,0 21 11 E - 10 -
15.07.2018 02:00:00 23,2 18,6 9 5 N 1016,0 10 -
15.07.2018 01:00:00 22,0 19,0 4 2 - - 10 -
15.07.2018 00:00:00 23,0 19,0 5 3 N - 10 -
14.07.2018 23:00:00 25,1 17,9 8 4 S 1015,3 10 0,0
14.07.2018 22:00:00 26,0 19,0 2 1 - - 10 -
14.07.2018 21:00:00 26,0 17,0 8 4 N - 10 -
14.07.2018 20:00:00 27,6 19,0 9 5 N 1014,1 10 -
14.07.2018 19:00:00 28,0 22,0 9 5 NNW - 10 -
14.07.2018 18:00:00 28,0 21,0 9 5 WNW - 10 -
14.07.2018 17:00:00 29,9 19,2 9 5 S 1015,0 10 0,0
14.07.2018 16:00:00 31,0 18,0 11 6 SSE - 10 -
14.07.2018 15:00:00 31,0 19,0 8 4 S - 10 -
14.07.2018 14:00:00 30,1 19,6 9 5 S 1016,4 10 -
14.07.2018 13:00:00 30,0 21,0 5 3 - - 10 -
14.07.2018 12:00:00 28,0 20,0 9 5 ESE - 10 -
14.07.2018 11:00:00 27,7 20,2 9 5 ESE 1018,1 10 0,0
14.07.2018 10:00:00 27,0 20,0 11 6 E - 10 -
14.07.2018 09:00:00 26,0 20,0 11 6 E - 10 -
14.07.2018 08:00:00 24,3 19,9 5 3 E 1018,5 10 -
14.07.2018 07:00:00 23,0 20,0 5 3 E - 10 -
14.07.2018 06:00:00 22,0 19,0 8 4 ENE - 10 -
14.07.2018 05:00:00 22,5 19,1 5 3 NE 1017,8 - 0,0
14.07.2018 04:00:00 - - - - - - - -
14.07.2018 03:00:00 22,0 18,0 4 2 S - 10 -
14.07.2018 02:00:00 22,9 19,4 4 2 S 1017,5 10 -
14.07.2018 01:00:00 24,0 18,0 4 2 W - 10 -
14.07.2018 00:00:00 25,0 20,0 4 2 S - 10 -
13.07.2018 23:00:00 24,7 19,5 4 2 S 1016,8 10 0,0
13.07.2018 22:00:00 26,0 19,0 5 3 S - 10 -
13.07.2018 21:00:00 28,0 19,0 4 2 - - 10 -
13.07.2018 20:00:00 29,6 18,6 5 3 WSW 1015,6 10 -
13.07.2018 19:00:00 31,0 17,0 9 5 SW - 10 -
13.07.2018 18:00:00 31,0 17,0 11 6 SW - 10 -
13.07.2018 17:00:00 30,8 17,7 9 5 WSW 1015,9 10 0,0
13.07.2018 16:00:00 30,0 19,0 9 5 W - 10 -
13.07.2018 15:00:00 29,0 19,0 9 5 SW - 10 -
13.07.2018 14:00:00 28,9 18,8 9 5 S 1017,3 8 -
13.07.2018 13:00:00 28,0 20,0 9 5 - - 8 -
13.07.2018 12:00:00 27,0 21,0 8 4 S - 8 -
13.07.2018 11:00:00 25,9 19,9 8 4 - 1018,1 8 0,0
13.07.2018 10:00:00 25,0 20,0 8 4 S - 6 -
13.07.2018 09:00:00 24,0 20,0 8 4 ESE - 6 -
13.07.2018 08:00:00 23,6 19,5 5 3 E 1017,4 6 -
13.07.2018 07:00:00 21,0 19,0 4 2 - - 7 -
13.07.2018 06:00:00 21,0 19,0 2 1 WNW - 8 -
13.07.2018 05:00:00 20,5 19,4 2 1 - 1016,6 10 0,0
13.07.2018 04:00:00 21,0 19,0 4 2 - - 10 -
13.07.2018 03:00:00 22,0 19,0 5 3 W - 10 -
13.07.2018 02:00:00 22,5 19,2 5 3 W 1016,0 10 -
13.07.2018 01:00:00 23,0 20,0 4 2 - - 10 -
13.07.2018 00:00:00 24,0 20,0 5 3 SW - 10 -
12.07.2018 23:00:00 23,3 20,0 4 2 S 1015,4 10 0,0
12.07.2018 22:00:00 24,0 20,0 4 2 SSW - 10 -
12.07.2018 21:00:00 25,0 19,0 5 3 SSW - 10 -
12.07.2018 20:00:00 26,6 18,7 5 3 S 1014,0 10 -
12.07.2018 19:00:00 28,0 18,0 8 4 S - 10 -
12.07.2018 18:00:00 28,0 19,0 8 4 S - 10 -
12.07.2018 17:00:00 27,2 19,2 9 5 S 1014,3 10 0,0
12.07.2018 16:00:00 27,0 19,0 11 6 SSE - 8 -
12.07.2018 15:00:00 26,0 18,0 11 6 S - 9 -
12.07.2018 14:00:00 26,5 18,8 9 5 ESE 1015,2 8 -
12.07.2018 13:00:00 25,0 19,0 13 7 SE - 8 -
12.07.2018 12:00:00 24,0 19,0 13 7 SE - 8 -
12.07.2018 11:00:00 23,3 18,9 13 7 SE 1015,3 8 0,0
12.07.2018 10:00:00 22,0 18,0 16 9 SE - 8 -
12.07.2018 09:00:00 22,0 18,0 13 7 ESE - 8 -
12.07.2018 08:00:00 21,6 18,0 13 7 ESE 1014,7 8 -
12.07.2018 07:00:00 21,0 18,0 9 5 ENE - 8 -
12.07.2018 06:00:00 21,0 18,0 8 4 E - 6 -
12.07.2018 05:00:00 21,0 18,2 9 5 E 1013,9 10 0,0
12.07.2018 04:00:00 20,0 19,0 8 4 NE - 10 -
12.07.2018 03:00:00 21,0 19,0 5 3 ENE - 10 -
12.07.2018 02:00:00 21,4 18,8 11 6 ESE 1014,1 10 -
12.07.2018 01:00:00 21,0 19,0 9 5 E - 10 -
12.07.2018 00:00:00 22,0 19,0 8 4 ESE - 10 -
11.07.2018 23:00:00 21,9 18,9 11 6 ESE 1013,2 10 0,0
11.07.2018 22:00:00 23,0 19,0 11 6 SE - 10 -
11.07.2018 21:00:00 24,0 18,0 13 7 SE - 10 -
11.07.2018 20:00:00 24,5 18,2 11 6 ESE 1011,3 10 -
11.07.2018 19:00:00 25,0 19,0 13 7 ESE - 10 -
11.07.2018 18:00:00 25,0 18,0 16 9 SE - 10 -
11.07.2018 17:00:00 24,6 17,8 15 8 SE 1011,3 10 0,0
11.07.2018 16:00:00 25,0 18,0 15 8 SE - 10 -
11.07.2018 15:00:00 25,0 17,0 16 9 SSE - 10 -
11.07.2018 14:00:00 24,0 17,7 16 9 ESE 1012,2 10 -
11.07.2018 13:00:00 24,0 17,0 21 11 SSE - 10 -
11.07.2018 12:00:00 23,0 17,0 21 11 ESE - 10 -
11.07.2018 11:00:00 22,2 17,6 16 9 E 1012,4 10 0,0
11.07.2018 10:00:00 21,0 17,0 18 10 E - 10 -
11.07.2018 09:00:00 20,0 18,0 13 7 ESE - 10 -
11.07.2018 08:00:00 20,0 18,3 13 7 E 1012,0 10 -
11.07.2018 07:00:00 20,0 19,0 13 7 E - 5 -
11.07.2018 06:00:00 20,0 18,0 21 11 ESE - 5 -
11.07.2018 05:00:00 20,1 18,7 13 7 E 1011,2 8 0,0
11.07.2018 04:00:00 - - - - - - - -
11.07.2018 03:00:00 22,0 19,0 13 7 E - 10 -
11.07.2018 02:00:00 21,3 19,0 11 6 E 1011,1 - -
11.07.2018 01:00:00 22,0 19,0 13 7 NE - 10 -
11.07.2018 00:00:00 23,0 19,0 18 10 NNE - 10 -
10.07.2018 23:00:00 25,1 15,7 9 5 W 1010,1 10 0,0
10.07.2018 22:00:00 26,0 16,0 5 3 WSW - 10 -
10.07.2018 21:00:00 28,0 18,0 8 4 SSE - 10 -
10.07.2018 20:00:00 28,7 17,8 8 4 S 1009,3 10 -
10.07.2018 19:00:00 30,0 18,0 4 2 - - 10 -
10.07.2018 18:00:00 30,0 17,0 9 5 S - 10 -
10.07.2018 17:00:00 29,7 17,6 8 4 S 1010,5 10 0,0
10.07.2018 16:00:00 30,0 16,0 9 5 SE - 10 -
10.07.2018 15:00:00 29,0 16,0 5 3 - - 10 -
10.07.2018 14:00:00 28,0 16,0 9 5 SE - 10 -
10.07.2018 13:00:00 27,0 16,0 13 7 SE - 10 -
10.07.2018 12:00:00 27,0 16,0 15 8 SE - 10 -
10.07.2018 11:00:00 26,1 15,7 13 7 ESE 1013,8 20 0,0
10.07.2018 10:00:00 25,0 16,0 16 9 ESE - 10 -
10.07.2018 09:00:00 24,0 15,0 13 7 ESE - 10 -
10.07.2018 08:00:00 23,3 15,7 11 6 ESE 1014,1 10 -
10.07.2018 07:00:00 23,0 16,0 9 5 ESE - 10 -
10.07.2018 06:00:00 - - - - - - - -
10.07.2018 05:00:00 22,8 15,6 8 4 E 1014,2 10 0,0
10.07.2018 04:00:00 23,0 15,0 5 3 E - 10 -
10.07.2018 03:00:00 24,0 17,0 9 5 E - 10 -
10.07.2018 02:00:00 23,2 17,1 8 4 NE 1014,8 10 -
10.07.2018 01:00:00 25,0 16,0 9 5 ENE - 10 -
10.07.2018 00:00:00 25,0 16,0 5 3 ENE - 10 -
09.07.2018 23:00:00 23,6 18,5 2 1 - 1014,6 10 0,0
09.07.2018 22:00:00 27,0 17,0 5 3 E - 10 -
09.07.2018 21:00:00 28,0 16,0 9 5 ESE - 10 -

tt = temperature
td = dewpoint
ff = wind speed
dd = wind direction
ppp = reduced air pressure
vv = visibility
rr = precipitation

Next stations